Location: Carignano
(44.7167°N, 10.2667°E)
Time: 00:27:51
(UTC+00:00)

Daily predictions for brighter satellites

Satellite Brightness Start Highest point End
(mag) Time Altitude Azimuth Time Altitude Azimuth Time Altitude Azimuth
Cosmos 2278 Rocket 4.5 02:31:43 20° ENE 02:31:43 20° ENE 02:34:26 10° NE
COSMOS 2406 3.1 03:52:21 84° SSW 03:52:21 84° SSW 03:57:53 10° SSE
Meteor 2-2 Rocket 4.1 03:53:01 82° W 03:53:01 82° W 03:58:46 10° S
Cosmos 2344 3.8 03:46:50 10° SSW 03:54:18 64° ESE 04:01:49 10° NE
Cosmos 2082 Rocket 2.5 03:52:50 42° N 03:54:37 63° ENE 04:00:10 10° SE
COSMOS 2455 2.7 03:57:05 71° WSW 03:57:05 71° WSW 04:03:04 10° SSE
Cosmos 1850 Rocket 4.2 03:54:57 26° S 03:57:59 70° ESE 04:03:20 10° NNE
Cosmos 1891 Rocket 4.4 03:51:51 10° N 03:58:21 85° W 04:04:49 10° S
Cosmos 1842 Rocket 3.8 03:58:54 68° ESE 03:58:54 68° ESE 04:03:07 10° SSE
SL-24 R/B 4.4 03:55:05 10° NNE 04:00:20 81° ESE 04:02:33 32° S
Cosmos 468 Rocket 4.2 04:07:17 54° SSW 04:07:17 54° SSW 04:11:39 10° S
Cosmos 1513 Rocket 4.4 04:02:47 12° NNW 04:08:47 75° W 04:15:09 10° S
MOS 1-B Rocket 4.2 04:02:49 10° SSE 04:09:36 78° ENE 04:15:33 10° NNW
Cosmos 2278 Rocket 2.2 04:13:39 58° WNW 04:13:47 58° WNW 04:19:24 10° NNE
Cosmos 2034 Rocket 4.0 04:08:34 10° N 04:14:48 79° E 04:21:03 10° S
Cosmos 1900 4.4 04:13:44 48° NNW 04:15:04 75° NE 04:20:06 10° SE
USA 215 3.2 04:08:55 10° SE 04:15:26 74° SW 04:17:51 42° WNW
Cosmos 1943 Rocket 3.6 04:13:04 10° S 04:18:15 38° ESE 04:23:27 10° NE
CZ-2C R/B 3.0 04:14:02 10° SSE 04:19:33 69° ENE 04:24:59 10° N
BREEZE M DEB (TANK) 3.3 04:21:18 55° NW 04:21:47 59° NNW 04:24:39 10° ENE
SKYMED 2 3.8 04:18:39 10° SSE 04:22:58 70° ENE 04:26:01 19° N
Cosmos 1072 Rocket 4.4 04:18:59 14° NNW 04:24:11 58° W 04:30:09 10° S
Cosmos 540 Rocket 3.3 04:25:25 44° NW 04:26:57 68° WSW 04:32:02 10° S
Cosmos 2346 Rocket 4.4 04:22:47 10° SSW 04:28:59 65° W 04:35:15 10° N
Cosmos 2221 3.4 04:32:04 34° SW 04:32:04 34° SW 04:34:52 10° SSW
Cosmos 1933 3.9 04:27:43 13° N 04:31:16 58° E 04:35:12 10° SSE
Cosmos 1833 Rocket 3.5 04:34:00 30° WSW 04:34:00 30° WSW 04:38:08 10° SSW
Cosmos 1741 Rocket 3.9 04:30:03 18° SW 04:33:54 62° WNW 04:39:06 10° NNE
Tsikada Rocket 4.1 04:29:48 10° S 04:35:57 78° E 04:42:13 10° N
SL-8 R/B 3.7 04:35:05 47° WNW 04:36:15 65° NNW 04:41:01 10° ENE
CZ-4B R/B 4.1 04:32:51 10° NNE 04:37:15 82° ESE 04:41:42 10° S
Meteor 1-31 Rocket 2.8 04:34:53 10° NNE 04:38:46 82° ESE 04:42:38 10° S
Cosmos 2151 3.0 04:37:16 10° S 04:41:33 83° E 04:45:52 10° N
Cosmos 1634 Rocket 4.5 04:36:40 10° N 04:42:56 63° E 04:49:07 10° SSE
CZ-4C R/B 2.8 04:46:20 10° SSE 04:49:31 76° ENE 04:51:33 20° N
Cosmos 1812 4.4 04:46:58 10° N 04:50:31 34° ENE 04:54:03 10° SE
Cosmos 841 Rocket 3.6 04:48:36 24° NW 04:51:30 53° WSW 04:56:29 10° S
H-2A R/B 3.4 04:52:02 10° SE 04:55:55 38° ENE 04:59:53 10° N
Cosmos 2098 Rocket 4.1 04:54:12 10° SSE 04:57:18 39° E 05:01:04 10° NNE
SJ-12 4.2 04:54:18 10° N 04:58:15 44° WNW 05:02:10 10° SW
Envisat 3.0 04:54:13 10° N 04:59:10 55° WNW 05:04:07 10° SSW
FALCON 9 DEB 4.5 04:58:49 10° SSW 05:01:26 31° SE 05:04:04 10° ENE
Cosmos 1076 Rocket 4.1 05:02:43 10° SW 05:06:42 34° WNW 05:10:44 10° N
Cosmos 1570 Rocket 3.9 05:01:30 10° NNW 05:06:44 74° WSW 05:11:57 10° SSE
YAOGAN 6 3.4 05:04:07 10° N 05:07:21 29° WNW 05:10:33 10° SW
DMSP B5D2-2 4.2 05:03:32 10° SSE 05:08:44 77° ENE 05:13:58 10° N
Cosmos 2369 Rocket 3.5 05:04:11 10° S 05:09:26 44° ESE 05:14:42 10° NE
COSMO-SKYMED 1 3.1 05:07:08 10° SSW 05:11:07 36° W 05:14:38 13° NNW
Aureole 1 Rocket 2.0 05:09:58 10° SSW 05:13:09 89° ESE 05:16:08 10° NNE
FALCON 9 DEB 3.0 05:13:08 12° SW 05:15:46 64° SE 05:18:37 10° ENE
Cosmos 1867 3.6 05:10:50 12° NW 05:15:58 86° NE 05:21:26 10° SE
Cosmos 2084 Rocket 3.2 05:14:10 10° SW 05:17:58 58° NW 05:21:49 10° NNE
APEX 2.3 05:16:51 19° NNW 05:18:40 81° WSW 05:21:38 10° SSE
Cosmos 921 Rocket 3.5 05:14:37 10° NNW 05:18:57 63° ENE 05:23:20 10° SSE
NOSS 3-2 (A) 3.3 05:13:28 10° SW 05:19:00 64° NW 05:25:26 10° NE
H-2A R/B 3.7 05:17:18 10° NNW 05:20:16 23° WNW 05:23:14 10° WSW
Cosmos 1328 Rocket 4.4 05:16:33 10° N 05:20:53 52° ENE 05:25:10 10° SSE
FALCON 9 DEB 2.6 05:19:05 12° SW 05:21:38 85° SE 05:24:30 10° ENE
H-2A R/B 4.5 05:17:48 10° NE 05:21:50 24° E 05:25:48 10° SSE
NOSS 3-2 (C) 3.4 05:16:52 10° SSW 05:22:22 82° SE 05:28:46 10° NE
FALCON 9 DEB 3.5 05:22:02 10° SW 05:24:50 50° SE 05:27:40 10° ENE
NOAA 12 4.3 05:19:41 10° NNE 05:25:00 75° ESE 05:30:14 10° S
CENTAUR R/B 2.5 05:19:48 10° SW 05:25:38 73° NW 05:32:43 10° NE
Cosmos 968 Rocket 3.4 05:21:18 10° SSW 05:26:29 85° WNW 05:31:39 10° NNE
Cosmos 1151 Rocket 3.1 05:22:44 10° N 05:27:09 87° ENE 05:31:32 10° S
CZ-4B R/B 2.5 05:27:00 10° N 05:30:38 76° WNW 05:34:11 10° SSW
Meteor 2-3 Rocket 4.0 05:25:28 10° SW 05:30:48 44° WNW 05:36:15 10° N
Cosmos 2208 Rocket 4.2 05:25:38 10° NNW 05:30:58 58° WSW 05:36:16 10° S
Gbstr 26 Del rocket 2.9 05:28:19 16° WNW 05:31:22 73° SSW 05:35:50 10° SE
Meteor 2-6 Rocket 4.3 05:26:29 10° N 05:31:59 79° E 05:37:22 10° SSE
Cosmos 2082 Rocket 3.5 05:34:44 12° WNW 05:38:10 20° W 05:42:09 10° SW
CZ-4B R/B 2.1 05:37:08 10° SSE 05:40:26 55° ENE 05:43:43 10° N
Meteor PRIRODA 3.8 05:37:55 10° N 05:41:25 47° WNW 05:44:53 10° SSW
Cosmos 2297 3.9 05:36:14 10° SW 05:41:48 50° WNW 05:47:23 10° NNE
USA 238 DEB 3.7 05:44:19 10° SW 05:50:45 63° NW 05:57:35 10° NE
USA 238 3.6 05:44:25 10° SW 05:50:51 64° NW 05:57:42 10° NE
OE (NEXTSAT) 4.4 05:49:14 10° WNW 05:52:39 75° SSW 05:56:04 10° ESE
Cosmos 1782 4.0 05:50:39 10° NW 05:53:49 23° W 05:56:59 10° SW
Cosmos 1515 Rocket 4.1 05:49:28 10° N 05:53:50 64° E 05:58:09 10° SSE
Cosmos 1862 3.4 05:52:26 10° SSW 05:56:18 53° W 06:00:11 10° N
CZ-2C R/B 3.1 05:52:47 10° N 05:57:21 46° WNW 06:02:01 10° SW
Okean O Rocket 3.9 05:55:01 10° NE 05:58:58 30° E 06:02:51 10° SSE
Cosmos 2278 Rocket 3.9 05:56:48 10° WNW 05:59:10 13° NW 06:01:32 10° NNW
NOAA 6 4.0 05:54:52 10° NNE 06:00:01 82° WNW 06:05:07 10° SSW
CZ-2C R/B 4.1 05:56:39 10° SW 06:00:18 18° W 06:03:56 10° NW
Cosmos 1943 Rocket 2.8 05:56:48 10° WSW 06:02:00 36° NW 06:07:13 10° NNE
